Location: Hungerford
(51.4167°N, 1.5167°W)
Time: 03:33:27
(UTC+00:00)

Meteor 1-15 Rocket - Pass Details

Date: 18 September 2020
Orbit: 840 x 906 km, 81.2° (Epoch: 18 October)

Event Time Altitude Azimuth Distance (km) Brightness Sun altitude
Rises 19:51:46 0° 174° (S) 3,397 7.1 -15.8°
Reaches altitude 10° 19:54:12 10° 169° (S) 2,473 6.3 -16.2°
Maximum altitude 19:59:37 52° 95° (E) 1,062 4.3 -16.9°
Drops below altitude 10° 20:05:09 10° 21° (NNE) 2,530 6.7 -17.7°
Sets 20:07:40 0° 16° (NNE) 3,482 7.5 -18.1°
